Location: Overspoor
(51.4747°N, 5.6641°E)
Time: 22:13:21
(UTC+02:00)

X-37B - Pass Details

Date: 04 February 2022
Orbit: 328 x 343 km, 45.0° (Epoch: 15 May)

Event Time Altitude Azimuth Distance (km) Brightness Sun altitude
Rises 18:06:17 0° 251° (WSW) 2,122 7.3 -5.7°
Reaches altitude 10° 18:08:33 10° 236° (SW) 1,281 4.7 -6.1°
Maximum altitude 18:10:52 22° 181° (S) 796 2.4 -6.4°
Drops below altitude 10° 18:13:11 10° 127° (SE) 1,274 2.9 -6.8°
Enters shadow 18:14:35 - 116° (ESE) 1,785 3.5 -7.0°
